| time (UTC) | temp F | wind direction | speed knots | gust knots | rain 1hr in | rain 24hr in | rain mn in | humidity % | barometer mb |
| 20260906185516 | 75 | 62 | 4.3 | 10.4 | 0.00 | 0.00 | 0.00 | 62 | 1018.0 |
| 20260906185016 | 74 | 86 | 6.1 | 10.4 | 0.00 | 0.00 | 0.00 | 60 | 1018.1 |
| 20260906184517 | 74 | 94 | 4.3 | 13.0 | 0.00 | 0.00 | 0.00 | 61 | 1018.3 |
| 20260906184017 | 74 | 80 | 7.8 | 14.8 | 0.00 | 0.00 | 0.00 | 61 | 1018.2 |
| 20260906183538 | 74 | 94 | 8.7 | 14.8 | 0.00 | 0.00 | 0.00 | 59 | 1018.2 |
| 20260906183016 | 73 | 99 | 8.7 | 13.0 | 0.00 | 0.00 | 0.00 | 61 | 1018.4 |
| 20260906182516 | 73 | 58 | 7.0 | 13.0 | 0.00 | 0.00 | 0.00 | 61 | 1018.4 |
| 20260906182016 | 73 | 66 | 5.2 | 14.8 | 0.00 | 0.00 | 0.00 | 62 | 1018.3 |
| 20260906181516 | 73 | 83 | 7.8 | 14.8 | 0.00 | 0.00 | 0.00 | 62 | 1018.3 |
| 20260906181016 | 73 | 72 | 4.3 | 9.6 | 0.00 | 0.00 | 0.00 | 63 | 1018.3 |
| 20260906180516 | 73 | 71 | 7.0 | 9.6 | 0.00 | 0.00 | 0.00 | 62 | 1018.4 |
| 20260906180016 | 73 | 81 | 5.2 | 9.6 | 0.00 | 0.00 | 0.00 | 64 | 1018.6 |
| 20260906175556 | 73 | 77 | 6.1 | 10.4 | 0.00 | 0.00 | 0.00 | 63 | 1018.4 |
| 20260906175116 | 73 | 62 | 5.2 | 10.4 | 0.00 | 0.00 | 0.00 | 65 | 1018.5 |
| 20260906174537 | 73 | 78 | 5.2 | 9.6 | 0.00 | 0.00 | 0.00 | 66 | 1018.7 |
| 20260906174016 | 72 | 85 | 7.0 | 12.2 | 0.00 | 0.00 | 0.00 | 67 | 1018.7 |
| 20260906173516 | 72 | 79 | 7.0 | 12.2 | 0.00 | 0.00 | 0.00 | 63 | 1018.8 |
| 20260906173016 | 72 | 63 | 6.1 | 11.3 | 0.00 | 0.00 | 0.00 | 64 | 1018.9 |
| 20260906172516 | 73 | 69 | 6.1 | 11.3 | 0.00 | 0.00 | 0.00 | 64 | 1018.9 |
| 20260906172016 | 73 | 78 | 5.2 | 11.3 | 0.00 | 0.00 | 0.00 | 64 | 1019.0 |
| 20260906171516 | 73 | 81 | 6.1 | 11.3 | 0.00 | 0.00 | 0.00 | 65 | 1019.0 |
| 20260906171036 | 73 | 90 | 7.0 | 11.3 | 0.00 | 0.00 | 0.00 | 67 | 1019.1 |
| 20260906170556 | 72 | 89 | 6.1 | 10.4 | 0.00 | 0.00 | 0.00 | 67 | 1019.1 |
| 20260906170016 | 72 | 63 | 6.1 | 13.0 | 0.00 | 0.00 | 0.00 | 67 | 1019.1 |
| 20260906165516 | 72 | 66 | 7.8 | 13.0 | 0.00 | 0.00 | 0.00 | 67 | 1019.0 |
| 20260906165016 | 72 | 58 | 5.2 | 10.4 | 0.00 | 0.00 | 0.00 | 68 | 1019.1 |
| 20260906164516 | 71 | 85 | 5.2 | 14.8 | 0.00 | 0.00 | 0.00 | 71 | 1019.1 |
| 20260906164016 | 71 | 70 | 6.1 | 14.8 | 0.00 | 0.00 | 0.00 | 69 | 1019.1 |
| 20260906163516 | 71 | 71 | 7.0 | 12.2 | 0.00 | 0.00 | 0.00 | 68 | 1019.0 |
| 20260906163017 | 71 | 83 | 7.8 | 12.2 | 0.00 | 0.00 | 0.00 | 69 | 1019.1 |
| 20260906162516 | 71 | 78 | 6.1 | 11.3 | 0.00 | 0.00 | 0.00 | 69 | 1019.2 |
| 20260906162016 | 71 | 72 | 6.1 | 11.3 | 0.00 | 0.00 | 0.00 | 70 | 1019.2 |
| 20260906161516 | 71 | 65 | 6.1 | 10.4 | 0.00 | 0.00 | 0.00 | 71 | 1019.2 |
| 20260906161016 | 70 | 78 | 6.1 | 12.2 | 0.00 | 0.00 | 0.00 | 71 | 1019.2 |
| 20260906160516 | 70 | 56 | 6.1 | 12.2 | 0.00 | 0.00 | 0.00 | 72 | 1019.1 |
| 20260906160036 | 70 | 63 | 6.1 | 11.3 | 0.00 | 0.00 | 0.00 | 71 | 1019.1 |
| 20260906155516 | 70 | 61 | 6.1 | 10.4 | 0.00 | 0.00 | 0.00 | 71 | 1019.2 |
| 20260906155016 | 70 | 61 | 4.3 | 11.3 | 0.00 | 0.00 | 0.00 | 73 | 1019.3 |
| 20260906154536 | 70 | 91 | 7.0 | 11.3 | 0.00 | 0.00 | 0.00 | 72 | 1019.3 |
| 20260906154017 | 70 | 88 | 5.2 | 10.4 | 0.00 | 0.00 | 0.00 | 74 | 1019.4 |
| 20260906153516 | 70 | 82 | 7.0 | 10.4 | 0.00 | 0.00 | 0.00 | 72 | 1019.3 |
| 20260906153016 | 69 | 97 | 6.1 | 10.4 | 0.00 | 0.00 | 0.00 | 73 | 1019.2 |
| 20260906152516 | 69 | 98 | 7.0 | 10.4 | 0.00 | 0.00 | 0.00 | 74 | 1019.3 |
| 20260906152016 | 69 | 75 | 6.1 | 10.4 | 0.00 | 0.00 | 0.00 | 74 | 1019.2 |
| 20260906151517 | 69 | 63 | 5.2 | 10.4 | 0.00 | 0.00 | 0.00 | 75 | 1019.1 |
| 20260906151016 | 69 | 72 | 4.3 | 8.7 | 0.00 | 0.00 | 0.00 | 76 | 1019.2 |
| 20260906150516 | 68 | 89 | 5.2 | 8.7 | 0.00 | 0.00 | 0.00 | 77 | 1019.2 |
| 20260906150016 | 68 | 90 | 4.3 | 11.3 | 0.00 | 0.00 | 0.00 | 79 | 1019.1 |
| 20260906145516 | 67 | 87 | 6.1 | 11.3 | 0.00 | 0.00 | 0.00 | 79 | 1019.0 |
| 20260906145016 | 67 | 81 | 7.0 | 10.4 | 0.00 | 0.00 | 0.00 | 79 | 1018.9 |
| 20260906144517 | 67 | 100 | 7.0 | 10.4 | 0.00 | 0.00 | 0.00 | 81 | 1018.9 |
| 20260906144016 | 67 | 94 | 6.1 | 11.3 | 0.00 | 0.00 | 0.00 | 81 | 1018.9 |
| 20260906143516 | 66 | 93 | 7.8 | 12.2 | 0.00 | 0.00 | 0.00 | 82 | 1018.9 |
| 20260906143056 | 66 | 90 | 7.0 | 12.2 | 0.00 | 0.00 | 0.00 | 82 | 1018.8 |
| 20260906142515 | 66 | 91 | 7.0 | 12.2 | 0.00 | 0.00 | 0.00 | 82 | 1018.8 |
| 20260906142016 | 66 | 81 | 7.0 | 10.4 | 0.00 | 0.00 | 0.00 | 82 | 1018.9 |
| 20260906141516 | 66 | 85 | 7.0 | 11.3 | 0.00 | 0.00 | 0.00 | 82 | 1018.8 |
| 20260906141016 | 65 | 88 | 7.8 | 11.3 | 0.00 | 0.00 | 0.00 | 82 | 1018.8 |
| 20260906140516 | 65 | 95 | 6.1 | 10.4 | 0.00 | 0.00 | 0.00 | 83 | 1018.8 |
| 20260906140015 | 65 | 85 | 4.3 | 9.6 | 0.00 | 0.00 | 0.00 | 85 | 1019.0 |
| 20260906135516 | 65 | 83 | 4.3 | 9.6 | 0.00 | 0.00 | 0.00 | 85 | 1018.9 |
| 20260906135017 | 64 | 85 | 4.3 | 9.6 | 0.00 | 0.00 | 0.00 | 85 | 1018.8 |
| 20260906134515 | 64 | 90 | 5.2 | 9.6 | 0.00 | 0.00 | 0.00 | 86 | 1018.8 |
| 20260906134015 | 63 | 77 | 5.2 | 9.6 | 0.00 | 0.00 | 0.00 | 86 | 1018.8 |
| 20260906133516 | 63 | 73 | 3.5 | 7.0 | 0.00 | 0.00 | 0.00 | 87 | 1018.9 |
| 20260906133036 | 62 | 74 | 2.6 | 7.0 | 0.00 | 0.00 | 0.00 | 88 | 1018.9 |
| 20260906132515 | 62 | 75 | 1.7 | 6.1 | 0.00 | 0.00 | 0.00 | 88 | 1018.8 |
| 20260906132036 | 62 | 83 | 2.6 | 6.1 | 0.00 | 0.00 | 0.00 | 89 | 1018.7 |
| 20260906131516 | 61 | 83 | 1.7 | 4.3 | 0.00 | 0.00 | 0.00 | 90 | 1018.7 |
| 20260906131036 | 61 | 64 | 1.7 | 4.3 | 0.00 | 0.00 | 0.00 | 91 | 1018.6 |
| 20260906130515 | 60 | 58 | 0.9 | 4.3 | 0.00 | 0.00 | 0.00 | 91 | 1018.7 |
| 20260906130015 | 60 | 50 | 0.9 | 4.3 | 0.00 | 0.00 | 0.00 | 92 | 1018.6 |
| 20260906125516 | 60 | 54 | 0.9 | 2.6 | 0.00 | 0.00 | 0.00 | 93 | 1018.6 |
| 20260906125015 | 59 | 53 | 0.0 | 2.6 | 0.00 | 0.00 | 0.00 | 94 | 1018.6 |
| 20260906124517 | 59 | 45 | 0.9 | 2.6 | 0.00 | 0.00 | 0.00 | 94 | 1018.5 |
| 20260906124015 | 58 | 47 | 0.0 | 1.7 | 0.00 | 0.00 | 0.00 | 95 | 1018.4 |
| 20260906123537 | 57 | 0.0 | 0.0 | 0.00 | 0.00 | 0.00 | 95 | 1018.4 | |
| 20260906123016 | 57 | 0.0 | 0.0 | 0.00 | 0.00 | 0.00 | 95 | 1018.3 | |
| 20260906122515 | 56 | 0.0 | 0.0 | 0.00 | 0.00 | 0.00 | 94 | 1018.3 | |
| 20260906122016 | 56 | 0.0 | 0.0 | 0.00 | 0.00 | 0.00 | 95 | 1018.3 | |
| 20260906121515 | 56 | 0.0 | 0.0 | 0.00 | 0.00 | 0.00 | 94 | 1018.3 | |
| 20260906121015 | 55 | 0.0 | 0.0 | 0.00 | 0.00 | 0.00 | 94 | 1018.1 | |
| 20260906120515 | 55 | 0.0 | 0.0 | 0.00 | 0.00 | 0.00 | 94 | 1017.9 | |
| 20260906120017 | 55 | 0.0 | 0.0 | 0.00 | 0.00 | 0.00 | 94 | 1017.9 | |
| 20260906115516 | 55 | 0.0 | 0.9 | 0.00 | 0.00 | 0.00 | 94 | 1017.9 | |
| 20260906115015 | 55 | 40 | 0.0 | 1.7 | 0.00 | 0.00 | 0.00 | 94 | 1017.8 |
| 20260906114537 | 55 | 27 | 0.9 | 1.7 | 0.00 | 0.00 | 0.00 | 94 | 1017.8 |
| 20260906114015 | 54 | 14 | 0.9 | 1.7 | 0.00 | 0.00 | 0.00 | 94 | 1017.7 |
| 20260906113516 | 54 | 17 | 0.9 | 1.7 | 0.00 | 0.00 | 0.00 | 94 | 1017.6 |
| 20260906113015 | 54 | 25 | 0.0 | 1.7 | 0.00 | 0.00 | 0.00 | 94 | 1017.5 |
| 20260906112515 | 54 | 0.0 | 0.0 | 0.00 | 0.00 | 0.00 | 94 | 1017.5 | |
| 20260906112015 | 54 | 0.0 | 0.0 | 0.00 | 0.00 | 0.00 | 94 | 1017.6 | |
| 20260906111515 | 55 | 0.0 | 0.0 | 0.00 | 0.00 | 0.00 | 93 | 1017.6 | |
| 20260906111015 | 55 | 0.0 | 0.0 | 0.00 | 0.00 | 0.00 | 93 | 1017.5 | |
| 20260906110516 | 55 | 0.0 | 0.9 | 0.00 | 0.00 | 0.00 | 93 | 1017.4 | |
| 20260906110015 | 55 | 47 | 0.0 | 0.9 | 0.00 | 0.00 | 0.00 | 93 | 1017.3 |
| 20260906105515 | 55 | 45 | 0.0 | 1.7 | 0.00 | 0.00 | 0.00 | 93 | 1017.3 |
| 20260906105017 | 55 | 16 | 0.9 | 1.7 | 0.00 | 0.00 | 0.00 | 93 | 1017.3 |
| 20260906104515 | 55 | 19 | 0.0 | 1.7 | 0.00 | 0.00 | 0.00 | 93 | 1017.4 |
| 20260906104015 | 55 | 18 | 0.0 | 3.5 | 0.00 | 0.00 | 0.00 | 93 | 1017.3 |
| 20260906103515 | 55 | 10 | 1.7 | 3.5 | 0.00 | 0.00 | 0.00 | 93 | 1017.3 |
| 20260906103015 | 55 | 14 | 1.7 | 2.6 | 0.00 | 0.00 | 0.00 | 93 | 1017.2 |
| 20260906102515 | 55 | 29 | 0.9 | 2.6 | 0.00 | 0.00 | 0.00 | 93 | 1017.2 |
| 20260906102015 | 55 | 31 | 0.9 | 2.6 | 0.00 | 0.00 | 0.00 | 93 | 1017.1 |
| 20260906101515 | 55 | 31 | 0.9 | 2.6 | 0.00 | 0.00 | 0.00 | 92 | 1017.1 |
| 20260906101015 | 56 | 37 | 0.0 | 1.7 | 0.00 | 0.00 | 0.00 | 92 | 1017.0 |
| 20260906100515 | 56 | 38 | 0.0 | 2.6 | 0.00 | 0.00 | 0.00 | 92 | 1017.1 |
| 20260906100015 | 56 | 39 | 0.9 | 2.6 | 0.00 | 0.00 | 0.00 | 92 | 1017.0 |
| 20260906095515 | 56 | 53 | 0.9 | 2.6 | 0.00 | 0.00 | 0.00 | 92 | 1017.0 |
| 20260906095057 | 56 | 52 | 1.7 | 3.5 | 0.00 | 0.00 | 0.00 | 92 | 1017.0 |
| 20260906094515 | 56 | 56 | 1.7 | 3.5 | 0.00 | 0.00 | 0.00 | 92 | 1017.0 |
| 20260906094015 | 56 | 53 | 1.7 | 3.5 | 0.00 | 0.00 | 0.00 | 92 | 1017.0 |
| 20260906093515 | 56 | 40 | 0.9 | 2.6 | 0.00 | 0.00 | 0.00 | 92 | 1017.0 |
| 20260906093015 | 56 | 0.0 | 0.0 | 0.00 | 0.00 | 0.00 | 91 | 1017.1 | |
| 20260906092515 | 56 | 0.0 | 0.0 | 0.00 | 0.00 | 0.00 | 91 | 1017.0 | |
| 20260906092035 | 56 | 0.0 | 0.0 | 0.00 | 0.00 | 0.00 | 91 | 1017.0 | |
| 20260906091536 | 57 | 0.0 | 0.0 | 0.00 | 0.00 | 0.00 | 91 | 1017.0 | |
| 20260906091035 | 57 | 0.0 | 0.0 | 0.00 | 0.00 | 0.00 | 91 | 1016.9 | |
| 20260906090535 | 57 | 0.0 | 0.0 | 0.00 | 0.00 | 0.00 | 91 | 1016.9 | |
| 20260906090056 | 57 | 0.0 | 0.9 | 0.00 | 0.00 | 0.00 | 91 | 1016.8 | |
| 20260906085515 | 57 | 60 | 0.0 | 1.7 | 0.00 | 0.00 | 0.00 | 91 | 1016.6 |
| 20260906085015 | 57 | 44 | 0.0 | 1.7 | 0.00 | 0.00 | 0.00 | 91 | 1016.6 |
| 20260906084535 | 57 | 42 | 0.0 | 2.6 | 0.00 | 0.00 | 0.00 | 91 | 1016.6 |
| 20260906084015 | 57 | 44 | 0.0 | 2.6 | 0.00 | 0.00 | 0.00 | 91 | 1016.6 |
| 20260906083515 | 57 | 58 | 0.0 | 1.7 | 0.00 | 0.00 | 0.00 | 91 | 1016.5 |
| 20260906083015 | 57 | 54 | 0.0 | 2.6 | 0.00 | 0.00 | 0.00 | 92 | 1016.5 |
| 20260906082515 | 57 | 55 | 0.9 | 4.3 | 0.00 | 0.00 | 0.00 | 92 | 1016.5 |
| 20260906082015 | 57 | 67 | 1.7 | 4.3 | 0.00 | 0.00 | 0.00 | 92 | 1016.5 |
| 20260906081516 | 57 | 70 | 1.7 | 3.5 | 0.00 | 0.00 | 0.00 | 92 | 1016.3 |
| 20260906081015 | 57 | 62 | 0.9 | 2.6 | 0.00 | 0.00 | 0.00 | 92 | 1016.4 |
| 20260906080516 | 57 | 64 | 0.0 | 1.7 | 0.00 | 0.00 | 0.00 | 91 | 1016.4 |
| 20260906080015 | 58 | 64 | 0.0 | 0.9 | 0.00 | 0.00 | 0.00 | 91 | 1016.4 |
| 20260906075515 | 58 | 68 | 0.0 | 1.7 | 0.00 | 0.00 | 0.00 | 91 | 1016.4 |
| 20260906075015 | 58 | 81 | 0.0 | 1.7 | 0.00 | 0.00 | 0.00 | 91 | 1016.3 |
| 20260906074515 | 58 | 87 | 0.0 | 1.7 | 0.00 | 0.00 | 0.00 | 91 | 1016.3 |
| 20260906074017 | 58 | 64 | 0.0 | 2.6 | 0.00 | 0.00 | 0.00 | 91 | 1016.3 |
| 20260906073517 | 58 | 62 | 0.9 | 2.6 | 0.00 | 0.00 | 0.00 | 91 | 1016.2 |
| 20260906073017 | 58 | 42 | 0.9 | 1.7 | 0.00 | 0.00 | 0.00 | 91 | 1016.2 |
| 20260906072557 | 58 | 32 | 0.9 | 1.7 | 0.00 | 0.00 | 0.00 | 90 | 1016.2 |
| 20260906072017 | 59 | 40 | 0.9 | 2.6 | 0.00 | 0.00 | 0.00 | 90 | 1016.2 |
| 20260906071517 | 59 | 39 | 1.7 | 2.6 | 0.00 | 0.00 | 0.00 | 90 | 1016.3 |
| 20260906071015 | 59 | 46 | 0.0 | 1.7 | 0.00 | 0.00 | 0.00 | 89 | 1016.2 |
| 20260906070518 | 59 | 51 | 0.9 | 1.7 | 0.00 | 0.00 | 0.00 | 89 | 1016.3 |
| 20260906070017 | 59 | 48 | 0.0 | 1.7 | 0.00 | 0.00 | 0.00 | 88 | 1016.3 |
| 20260906065537 | 60 | 0.0 | 0.9 | 0.00 | 0.00 | 0.00 | 88 | 1016.4 | |
| 20260906065017 | 60 | 38 | 0.0 | 1.7 | 0.00 | 0.00 | 0.00 | 88 | 1016.4 |
| 20260906064517 | 60 | 37 | 0.0 | 1.7 | 0.00 | 0.00 | 0.00 | 87 | 1016.5 |
| 20260906064017 | 60 | 0.0 | 0.0 | 0.00 | 0.00 | 0.00 | 87 | 1016.4 | |
| 20260906063517 | 60 | 0.0 | 0.0 | 0.00 | 0.00 | 0.00 | 87 | 1016.4 | |
| 20260906063017 | 61 | 0.0 | 1.7 | 0.00 | 0.00 | 0.00 | 86 | 1016.4 | |
| 20260906062517 | 61 | 39 | 0.0 | 2.6 | 0.00 | 0.00 | 0.00 | 87 | 1016.4 |
| 20260906062017 | 61 | 60 | 0.0 | 3.5 | 0.00 | 0.00 | 0.00 | 87 | 1016.4 |
| 20260906061517 | 61 | 89 | 1.7 | 3.5 | 0.00 | 0.00 | 0.00 | 87 | 1016.3 |
| 20260906061017 | 61 | 110 | 1.7 | 3.5 | 0.00 | 0.00 | 0.00 | 86 | 1016.2 |
| 20260906060518 | 62 | 106 | 2.6 | 3.5 | 0.00 | 0.00 | 0.00 | 85 | 1016.2 |
| 20260906060017 | 62 | 92 | 1.7 | 3.5 | 0.00 | 0.00 | 0.00 | 84 | 1016.2 |
| 20260906055517 | 62 | 82 | 0.9 | 2.6 | 0.00 | 0.00 | 0.00 | 84 | 1016.4 |
| 20260906055017 | 63 | 77 | 0.9 | 2.6 | 0.00 | 0.00 | 0.00 | 84 | 1016.3 |
| 20260906054517 | 63 | 66 | 1.7 | 2.6 | 0.00 | 0.00 | 0.00 | 83 | 1016.3 |
| 20260906054038 | 63 | 49 | 0.9 | 2.6 | 0.00 | 0.00 | 0.00 | 83 | 1016.2 |
| 20260906053518 | 63 | 44 | 0.9 | 2.6 | 0.00 | 0.00 | 0.00 | 82 | 1016.2 |
| 20260906053017 | 64 | 50 | 0.9 | 3.5 | 0.00 | 0.00 | 0.00 | 82 | 1016.2 |
| 20260906052517 | 64 | 74 | 1.7 | 3.5 | 0.00 | 0.00 | 0.00 | 81 | 1016.1 |
| 20260906052017 | 64 | 86 | 1.7 | 3.5 | 0.00 | 0.00 | 0.00 | 81 | 1016.1 |
| 20260906051517 | 64 | 98 | 2.6 | 5.2 | 0.00 | 0.00 | 0.00 | 81 | 1016.1 |
| 20260906051016 | 64 | 83 | 2.6 | 5.2 | 0.00 | 0.00 | 0.00 | 81 | 1016.1 |
| 20260906050517 | 65 | 21 | 1.7 | 7.0 | 0.00 | 0.00 | 0.00 | 81 | 1016.0 |
| 20260906050017 | 65 | 44 | 3.5 | 7.0 | 0.00 | 0.00 | 0.00 | 81 | 1016.0 |
| 20260906045518 | 65 | 20 | 2.6 | 6.1 | 0.00 | 0.00 | 0.00 | 81 | 1015.8 |
| 20260906045016 | 65 | 64 | 2.6 | 6.1 | 0.00 | 0.00 | 0.00 | 81 | 1015.8 |
| 20260906044517 | 65 | 85 | 2.6 | 6.1 | 0.00 | 0.00 | 0.00 | 82 | 1015.7 |
| 20260906044017 | 65 | 86 | 2.6 | 5.2 | 0.00 | 0.00 | 0.00 | 82 | 1015.7 |
| 20260906043518 | 65 | 84 | 2.6 | 5.2 | 0.00 | 0.00 | 0.00 | 81 | 1015.7 |
| 20260906043017 | 66 | 76 | 1.7 | 4.3 | 0.00 | 0.00 | 0.00 | 81 | 1015.6 |
| 20260906042538 | 66 | 83 | 2.6 | 6.1 | 0.00 | 0.00 | 0.00 | 81 | 1015.6 |
| 20260906042017 | 66 | 79 | 2.6 | 6.1 | 0.00 | 0.00 | 0.00 | 81 | 1015.5 |
| 20260906041516 | 66 | 84 | 1.7 | 6.1 | 0.00 | 0.00 | 0.00 | 81 | 1015.5 |
| 20260906041016 | 66 | 84 | 3.5 | 7.8 | 0.00 | 0.00 | 0.00 | 81 | 1015.5 |
| 20260906040518 | 67 | 82 | 3.5 | 7.8 | 0.00 | 0.00 | 0.00 | 80 | 1015.5 |
| 20260906040016 | 67 | 81 | 3.5 | 7.8 | 0.00 | 0.00 | 0.00 | 80 | 1015.5 |
| 20260906035515 | 67 | 81 | 3.5 | 7.8 | 0.00 | 0.00 | 0.00 | 80 | 1015.5 |
| 20260906035015 | 67 | 85 | 4.3 | 7.0 | 0.00 | 0.00 | 0.00 | 81 | 1015.4 |
| 20260906034515 | 68 | 88 | 3.5 | 7.0 | 0.00 | 0.00 | 0.00 | 81 | 1015.4 |
| 20260906034015 | 68 | 80 | 2.6 | 7.0 | 0.00 | 0.00 | 0.00 | 82 | 1015.4 |
| 20260906033515 | 68 | 77 | 2.6 | 6.1 | 0.00 | 0.00 | 0.00 | 82 | 1015.3 |
| 20260906033015 | 68 | 79 | 2.6 | 6.1 | 0.00 | 0.00 | 0.00 | 81 | 1015.3 |
| 20260906032515 | 68 | 82 | 2.6 | 7.0 | 0.00 | 0.00 | 0.00 | 82 | 1015.4 |
| 20260906032055 | 68 | 81 | 2.6 | 7.0 | 0.00 | 0.00 | 0.00 | 82 | 1015.5 |
| 20260906031517 | 68 | 75 | 1.7 | 4.3 | 0.00 | 0.00 | 0.00 | 82 | 1015.6 |
| 20260906031017 | 68 | 70 | 2.6 | 5.2 | 0.00 | 0.00 | 0.00 | 83 | 1015.5 |
| 20260906030517 | 68 | 67 | 2.6 | 6.1 | 0.00 | 0.00 | 0.00 | 83 | 1015.4 |
| 20260906030017 | 68 | 81 | 2.6 | 6.1 | 0.00 | 0.00 | 0.00 | 83 | 1015.4 |
| 20260906025517 | 69 | 82 | 3.5 | 7.0 | 0.00 | 0.00 | 0.00 | 83 | 1015.4 |
| 20260906025018 | 69 | 84 | 2.6 | 7.0 | 0.00 | 0.00 | 0.00 | 83 | 1015.3 |
| 20260906024518 | 69 | 82 | 2.6 | 7.0 | 0.00 | 0.00 | 0.00 | 84 | 1015.3 |
| 20260906024017 | 69 | 79 | 2.6 | 7.0 | 0.00 | 0.00 | 0.00 | 84 | 1015.2 |
| 20260906023518 | 68 | 76 | 2.6 | 7.0 | 0.00 | 0.00 | 0.00 | 84 | 1015.0 |
| 20260906023037 | 68 | 75 | 3.5 | 7.0 | 0.00 | 0.00 | 0.00 | 85 | 1014.9 |
| 20260906022517 | 68 | 78 | 3.5 | 7.0 | 0.00 | 0.00 | 0.00 | 87 | 1014.9 |
| 20260906022017 | 68 | 76 | 2.6 | 6.1 | 0.00 | 0.00 | 0.00 | 88 | 1015.0 |
| 20260906021517 | 68 | 72 | 0.9 | 4.3 | 0.00 | 0.00 | 0.00 | 89 | 1014.9 |
| 20260906021018 | 68 | 68 | 0.9 | 3.5 | 0.00 | 0.00 | 0.00 | 89 | 1014.9 |
| 20260906020517 | 68 | 80 | 0.9 | 3.5 | 0.00 | 0.00 | 0.00 | 89 | 1014.8 |
| 20260906020017 | 68 | 84 | 0.9 | 2.6 | 0.00 | 0.00 | 0.00 | 90 | 1014.8 |
| 20260906015517 | 68 | 56 | 0.0 | 2.6 | 0.00 | 0.00 | 0.00 | 90 | 1014.8 |
| 20260906015017 | 69 | 52 | 0.9 | 2.6 | 0.00 | 0.00 | 0.00 | 90 | 1014.8 |
| 20260906014517 | 69 | 47 | 0.0 | 1.7 | 0.00 | 0.00 | 0.00 | 90 | 1014.9 |
| 20260906014017 | 69 | 0.0 | 0.0 | 0.00 | 0.00 | 0.00 | 90 | 1014.8 | |
| 20260906013517 | 69 | 0.0 | 0.0 | 0.00 | 0.00 | 0.00 | 89 | 1014.9 | |
| 20260906013017 | 69 | 0.0 | 0.0 | 0.00 | 0.00 | 0.00 | 89 | 1014.8 | |
| 20260906012518 | 69 | 0.0 | 0.0 | 0.00 | 0.00 | 0.00 | 89 | 1014.6 | |
| 20260906012017 | 70 | 0.0 | 0.9 | 0.00 | 0.00 | 0.00 | 89 | 1014.6 | |
| 20260906011517 | 70 | 37 | 0.0 | 0.9 | 0.00 | 0.00 | 0.00 | 89 | 1014.5 |
| 20260906011018 | 70 | 0.0 | 0.0 | 0.00 | 0.00 | 0.00 | 88 | 1014.4 | |
| 20260906010517 | 70 | 0.0 | 0.0 | 0.00 | 0.00 | 0.00 | 88 | 1014.3 | |
| 20260906010018 | 70 | 0.0 | 0.0 | 0.00 | 0.00 | 0.00 | 87 | 1014.3 | |
| 20260906005517 | 70 | 0.0 | 0.0 | 0.00 | 0.00 | 0.00 | 87 | 1014.2 | |
| 20260906005016 | 71 | 0.0 | 0.0 | 0.00 | 0.00 | 0.00 | 86 | 1014.1 | |
| 20260906004517 | 71 | 0.0 | 0.0 | 0.00 | 0.00 | 0.00 | 86 | 1014.1 | |
| 20260906004037 | 71 | 0.0 | 0.9 | 0.00 | 0.00 | 0.00 | 86 | 1014.0 | |
| 20260906003517 | 71 | 37 | 0.0 | 0.9 | 0.00 | 0.00 | 0.00 | 85 | 1014.0 |
| 20260906003037 | 71 | 37 | 0.0 | 0.9 | 0.00 | 0.00 | 0.00 | 85 | 1014.0 |
| 20260906002516 | 72 | 37 | 0.0 | 1.7 | 0.00 | 0.00 | 0.00 | 85 | 1014.0 |
| 20260906002016 | 72 | 39 | 0.0 | 2.6 | 0.00 | 0.00 | 0.00 | 84 | 1014.0 |
| 20260906001517 | 72 | 39 | 0.9 | 2.6 | 0.00 | 0.00 | 0.00 | 84 | 1014.0 |
| 20260906001037 | 72 | 32 | 0.0 | 1.7 | 0.00 | 0.00 | 0.00 | 84 | 1014.0 |
| 20260906000516 | 73 | 31 | 0.0 | 1.7 | 0.00 | 0.00 | 0.00 | 83 | 1014.0 |
| 20260906000018 | 73 | 24 | 0.0 | 1.7 | 0.00 | 0.00 | 0.00 | 83 | 1014.0 |
| 20260905235517 | 73 | 35 | 0.0 | 1.7 | 0.00 | 0.00 | 0.00 | 83 | 1013.9 |
| 20260905235036 | 73 | 42 | 0.0 | 2.6 | 0.00 | 0.00 | 0.00 | 83 | 1013.9 |
| 20260905234517 | 73 | 42 | 0.9 | 3.5 | 0.00 | 0.00 | 0.00 | 83 | 1013.9 |
| 20260905234017 | 73 | 49 | 1.7 | 3.5 | 0.00 | 0.00 | 0.00 | 83 | 1013.9 |
| 20260905233517 | 73 | 44 | 0.9 | 2.6 | 0.00 | 0.00 | 0.00 | 84 | 1013.9 |
| 20260905233016 | 73 | 37 | 0.9 | 2.6 | 0.00 | 0.00 | 0.00 | 84 | 1013.9 |
| 20260905232516 | 73 | 47 | 0.0 | 3.5 | 0.00 | 0.00 | 0.00 | 84 | 1013.9 |
| 20260905232017 | 73 | 61 | 1.7 | 4.3 | 0.00 | 0.00 | 0.00 | 84 | 1013.9 |
| 20260905231537 | 73 | 69 | 1.7 | 4.3 | 0.00 | 0.00 | 0.00 | 84 | 1014.0 |
| 20260905231016 | 73 | 51 | 0.9 | 3.5 | 0.00 | 0.00 | 0.00 | 84 | 1013.9 |
| 20260905230516 | 73 | 60 | 0.0 | 3.5 | 0.00 | 0.00 | 0.00 | 85 | 1013.9 |
| 20260905230018 | 73 | 55 | 0.9 | 4.3 | 0.00 | 0.00 | 0.00 | 85 | 1013.9 |
| 20260905225517 | 73 | 58 | 2.6 | 4.3 | 0.00 | 0.00 | 0.00 | 84 | 1013.9 |
| 20260905225017 | 73 | 44 | 0.9 | 3.5 | 0.00 | 0.00 | 0.00 | 84 | 1013.8 |
| 20260905224516 | 73 | 48 | 0.9 | 4.3 | 0.00 | 0.00 | 0.00 | 84 | 1013.7 |
| 20260905224017 | 73 | 54 | 1.7 | 7.8 | 0.00 | 0.00 | 0.00 | 84 | 1013.7 |
| 20260905223536 | 73 | 66 | 4.3 | 8.7 | 0.00 | 0.00 | 0.00 | 83 | 1013.7 |
| 20260905223016 | 73 | 61 | 5.2 | 8.7 | 0.00 | 0.00 | 0.00 | 84 | 1013.6 |
| 20260905222517 | 73 | 58 | 2.6 | 7.0 | 0.00 | 0.00 | 0.00 | 85 | 1013.6 |
| 20260905222018 | 73 | 74 | 2.6 | 6.1 | 0.00 | 0.00 | 0.00 | 85 | 1013.5 |
| 20260905221518 | 73 | 74 | 2.6 | 7.0 | 0.00 | 0.00 | 0.00 | 85 | 1013.4 |
| 20260905221016 | 72 | 78 | 2.6 | 7.8 | 0.00 | 0.00 | 0.00 | 85 | 1013.4 |
| 20260905220517 | 72 | 87 | 5.2 | 7.8 | 0.00 | 0.00 | 0.00 | 85 | 1013.4 |
| 20260905220016 | 72 | 84 | 6.1 | 9.6 | 0.00 | 0.00 | 0.00 | 85 | 1013.5 |
| 20260905215536 | 72 | 79 | 5.2 | 9.6 | 0.00 | 0.00 | 0.00 | 85 | 1013.4 |
| 20260905215016 | 72 | 58 | 3.5 | 11.3 | 0.00 | 0.00 | 0.00 | 86 | 1013.4 |
| 20260905214517 | 72 | 68 | 6.1 | 11.3 | 0.00 | 0.00 | 0.00 | 86 | 1013.3 |
| 20260905214017 | 72 | 74 | 5.2 | 7.8 | 0.00 | 0.00 | 0.00 | 86 | 1013.2 |
| 20260905213518 | 72 | 79 | 4.3 | 7.8 | 0.00 | 0.00 | 0.00 | 87 | 1013.2 |
| 20260905213017 | 72 | 75 | 4.3 | 8.7 | 0.00 | 0.00 | 0.00 | 87 | 1013.2 |
| 20260905212518 | 72 | 86 | 3.5 | 8.7 | 0.00 | 0.00 | 0.00 | 87 | 1013.2 |
| 20260905212017 | 72 | 91 | 5.2 | 7.8 | 0.00 | 0.00 | 0.00 | 86 | 1013.2 |
| 20260905211516 | 72 | 63 | 4.3 | 7.8 | 0.00 | 0.00 | 0.00 | 87 | 1013.2 |
| 20260905211016 | 72 | 69 | 4.3 | 9.6 | 0.00 | 0.00 | 0.00 | 86 | 1013.2 |
| 20260905210516 | 72 | 67 | 5.2 | 9.6 | 0.00 | 0.00 | 0.00 | 86 | 1013.2 |
| 20260905210017 | 72 | 78 | 4.3 | 8.7 | 0.00 | 0.00 | 0.00 | 87 | 1013.2 |
| 20260905205539 | 72 | 69 | 4.3 | 8.7 | 0.00 | 0.00 | 0.00 | 87 | 1013.2 |
| 20260905205016 | 72 | 85 | 6.1 | 9.6 | 0.00 | 0.00 | 0.00 | 87 | 1013.3 |
| 20260905204518 | 72 | 72 | 6.1 | 9.6 | 0.00 | 0.00 | 0.00 | 87 | 1013.4 |
| 20260905204016 | 71 | 83 | 5.2 | 9.6 | 0.00 | 0.01 | 0.00 | 87 | 1013.4 |
| 20260905203516 | 71 | 78 | 6.1 | 10.4 | 0.00 | 0.01 | 0.00 | 87 | 1013.4 |
| 20260905203016 | 71 | 72 | 6.1 | 10.4 | 0.00 | 0.01 | 0.00 | 87 | 1013.5 |
| 20260905202516 | 71 | 70 | 6.1 | 11.3 | 0.00 | 0.01 | 0.00 | 88 | 1013.5 |
| 20260905202017 | 71 | 67 | 7.0 | 11.3 | 0.00 | 0.01 | 0.00 | 87 | 1013.6 |
| 20260905201516 | 71 | 70 | 7.0 | 9.6 | 0.00 | 0.01 | 0.00 | 87 | 1013.6 |
| 20260905201017 | 71 | 64 | 5.2 | 9.6 | 0.00 | 0.02 | 0.00 | 88 | 1013.6 |
| 20260905200537 | 71 | 68 | 4.3 | 9.6 | 0.00 | 0.02 | 0.00 | 88 | 1013.6 |
| 20260905200017 | 71 | 63 | 5.2 | 9.6 | 0.00 | 0.02 | 0.00 | 89 | 1013.6 |
| 20260905195536 | 71 | 65 | 4.3 | 8.7 | 0.00 | 0.02 | 0.00 | 89 | 1013.6 |
| 20260905195056 | 71 | 71 | 4.3 | 9.6 | 0.00 | 0.02 | 0.00 | 89 | 1013.6 |
| 20260905194516 | 71 | 64 | 4.3 | 10.4 | 0.00 | 0.02 | 0.00 | 89 | 1013.6 |
| 20260905194016 | 71 | 62 | 5.2 | 10.4 | 0.00 | 0.03 | 0.00 | 88 | 1013.6 |
| 20260905193516 | 71 | 50 | 4.3 | 10.4 | 0.00 | 0.03 | 0.00 | 88 | 1013.6 |
| 20260905193016 | 71 | 56 | 4.3 | 8.7 | 0.00 | 0.03 | 0.00 | 89 | 1013.5 |
| 20260905192536 | 71 | 56 | 3.5 | 8.7 | 0.00 | 0.03 | 0.00 | 89 | 1013.7 |
| 20260905192017 | 71 | 65 | 6.1 | 9.6 | 0.00 | 0.04 | 0.00 | 89 | 1013.7 |
| 20260905191517 | 71 | 74 | 4.3 | 9.6 | 0.00 | 0.04 | 0.00 | 89 | 1013.8 |
| 20260905191016 | 71 | 48 | 3.5 | 7.8 | 0.00 | 0.04 | 0.00 | 89 | 1013.7 |
| 20260905190516 | 71 | 52 | 2.6 | 9.6 | 0.00 | 0.05 | 0.00 | 90 | 1013.6 |
| 20260905190016 | 71 | 54 | 5.2 | 9.6 | 0.00 | 0.05 | 0.00 | 89 | 1013.7 |